星链-4055 (STARLINK-4055 )

导读

STARLINK-4055是美国太空探索技术公司(SpaceX)星链计划的卫星,于2022年7月17日发射入轨,属于星链星座组网卫星,旨在为全球提供高速互联网接入服务。星链通过大规模低轨卫星组网,弥补地面网络覆盖不足,该卫星是星链批量部署中的一员,服务全球卫星互联网系统。

Basic Information
目录编号:
53161
目录名称:
STARLINK-4055
国际标识:
2022-083AF
轨道中心:
EARTH
卫星名称:
星链-4055
卫星全名:
星链-4055 (STARLINK-4055 )
卫星状态:
在轨 (已飞行1431 天)
发射日期:
2022-07-17 UTC
国别 :
美国 (US)
星等 :
--
Orbit Information
数据来源 国际轨道数据 AOE轨道数据
星历时间 2026-06-17T10:58:35+0800
12小时前
查看轨道信息
2026-06-14T01:00:00+0800
3天前
查看轨道信息
半长轴 6917.888km 6917.848km
偏心率 0.000136 0.0001358
轨道倾角 53.160° 53.161°
近地点辐角 92.460° 74.309°
升交点赤经 77.650° 93.003°
平近点角 267.655° 82.390°
近地点 538.81km 538.771km
远地点 540.692km 540.651km
周期 95.438分钟 95.437分钟
每日圈数 15.088376 15.088507
Detailed Information
固有亮度:
5
最大亮度:
2.5
卫星平台:
Starlink v1.5
覆盖范围:
全球
运营商:
太空探索技术公司
运营商所在国:
美国
制造商(研发单位):
太空探索技术公司
制造商所在国:
美国
使用方式:
暂无
Satellite Introduction
星链(Starlink)计划是由太空探索技术公司(SpaceX)提出的一个巨型低轨卫星互联网星座项目,计划在2019年至2024年间在太空搭建由约1.2万颗卫星组成的“星链”网络,其中1584颗将部署在地球上空550千米处的近地轨道,并从2020年开始工作。该卫星仍在工作。
2D Orbit Map
3D Orbit Map
Orbit Altitude Analysis Chart
Orbit Inclination Analysis Chart
Orbit Comprehensive Analysis Chart
View Comprehensive Chart